User: anonymous   Login
Location: Newark
(46.7000°N, 60.6000°W)
Time: 12:47:13
(UTC+00:00)
Language:

Tiros 1 despin weight - Orbit

View from above orbital plane
View from above orbital plane
View from above satellite
View from above satellite

Ground track
Ground track

The orbit data is extracted from the following two-line orbital elements,

1   115U 60002D   20305.16354908  .00000077  00000-0  36303-4 0  9994
2   115  48.1676 341.6316 0033904 127.7551 232.6442 14.83638066233121
Epoch (UTC): 31 October 2020 03:55:30
Eccentricity: 0.0033904
inclination: 48.1676°
perigee height: 594 km
apogee height: 641 km
right ascension of ascending node: 341.6316°
argument of perigee: 127.7551°
revolutions per day: 14.83638066
mean anomaly at epoch: 232.6442°
orbit number at epoch: 23312

The dashed part of the orbit path shows where the satellite is in the earth's shadow,  

DLR